Terminal Aerodrome Forecast
Issued by NWS

Home | Current Version | Previous Version | Text Only | Print | Product List | Glossary On
Versions: 1 2 3 4 5 6 7 8 9 10 11 12
000
FTPQ31 PGUM 271120
TAFGUM
TAF

TAF
PTYA 271120Z 2712/2812 VRB05KT P6SM FEW020 FEW120
     FM280200 16006KT P6SM VCSH SCT018 SCT120=

USA.gov is the U.S. government's official web portal to all federal, state and local government web resources and services.